Time,TemperatureF,DewpointF,PressureIn,WindDirection,WindDirectionDegrees,WindSpeedMPH,WindSpeedGustMPH,Humidity,HourlyPrecipIn,Conditions,Clouds,dailyrainin,SoftwareType,DateUTC
2013-11-09 00:06:00,34.4,24.0,30.12,NE,38,0.0,1.0,66,0.00,,,0.00,weatherlink.com 1.10,2013-11-09 05:06:00,
2013-11-09 00:21:00,34.0,24.0,30.12,NE,37,0.0,1.0,68,0.00,,,0.00,weatherlink.com 1.10,2013-11-09 05:21:00,
2013-11-09 00:36:00,33.2,24.0,30.12,NE,37,0.0,1.0,70,0.00,,,0.00,weatherlink.com 1.10,2013-11-09 05:36:00,
2013-11-09 00:51:00,31.4,23.0,30.12,NE,38,0.0,1.0,71,0.00,,,0.00,weatherlink.com 1.10,2013-11-09 05:51:00,
2013-11-09 01:06:00,30.2,23.0,30.13,NE,38,0.0,1.0,73,0.00,,,0.00,weatherlink.com 1.10,2013-11-09 06:06:00,
2013-11-09 01:21:00,29.0,22.0,30.13,NE,39,0.0,1.0,76,0.00,,,0.00,weatherlink.com 1.10,2013-11-09 06:21:00,
2013-11-09 01:36:00,28.4,22.0,30.13,NE,39,0.0,1.0,78,0.00,,,0.00,weatherlink.com 1.10,2013-11-09 06:36:00,
2013-11-09 01:51:00,27.8,23.0,30.14,NE,39,0.0,0.0,81,0.00,,,0.00,weatherlink.com 1.10,2013-11-09 06:51:00,
2013-11-09 02:06:00,27.3,22.0,30.14,NE,40,0.0,1.0,81,0.00,,,0.00,weatherlink.com 1.10,2013-11-09 07:06:00,
2013-11-09 02:21:00,26.8,22.0,30.14,NE,40,0.0,0.0,83,0.00,,,0.00,weatherlink.com 1.10,2013-11-09 07:21:00,
2013-11-09 02:37:00,26.5,22.0,30.14,NE,40,0.0,1.0,83,0.00,,,0.00,weatherlink.com 1.10,2013-11-09 07:37:00,
2013-11-09 02:52:00,25.9,22.0,30.14,NE,40,0.0,1.0,84,0.00,,,0.00,weatherlink.com 1.10,2013-11-09 07:52:00,
2013-11-09 03:07:00,25.4,22.0,30.14,NE,40,0.0,0.0,86,0.00,,,0.00,weatherlink.com 1.10,2013-11-09 08:07:00,
2013-11-09 03:22:00,25.2,21.0,30.15,NE,40,0.0,1.0,85,0.00,,,0.00,weatherlink.com 1.10,2013-11-09 08:22:00,
2013-11-09 03:37:00,25.3,22.0,30.15,NE,40,0.0,1.0,86,0.00,,,0.00,weatherlink.com 1.10,2013-11-09 08:37:00,
2013-11-09 03:52:00,24.7,21.0,30.16,NE,40,0.0,1.0,87,0.00,,,0.00,weatherlink.com 1.10,2013-11-09 08:52:00,
2013-11-09 04:07:00,24.8,22.0,30.16,NE,40,0.0,1.0,87,0.00,,,0.00,weatherlink.com 1.10,2013-11-09 09:07:00,
2013-11-09 04:22:00,25.3,22.0,30.16,NE,34,0.0,1.0,87,0.00,,,0.00,weatherlink.com 1.10,2013-11-09 09:22:00,
2013-11-09 04:37:00,24.4,21.0,30.17,NE,41,0.0,1.0,87,0.00,,,0.00,weatherlink.com 1.10,2013-11-09 09:37:00,
2013-11-09 04:52:00,24.1,21.0,30.17,NE,39,0.0,2.0,88,0.00,,,0.00,weatherlink.com 1.10,2013-11-09 09:52:00,
2013-11-09 05:07:00,23.9,21.0,30.17,NE,36,0.0,1.0,89,0.00,,,0.00,weatherlink.com 1.10,2013-11-09 10:07:00,
2013-11-09 05:22:00,23.8,21.0,30.17,NE,39,0.0,1.0,89,0.00,,,0.00,weatherlink.com 1.10,2013-11-09 10:22:00,
2013-11-09 05:37:00,23.8,21.0,30.18,NE,39,0.0,1.0,88,0.00,,,0.00,weatherlink.com 1.10,2013-11-09 10:37:00,
2013-11-09 05:52:00,23.3,21.0,30.18,NE,39,0.0,1.0,90,0.00,,,0.00,weatherlink.com 1.10,2013-11-09 10:52:00,
2013-11-09 06:07:00,23.0,21.0,30.18,NE,39,0.0,1.0,90,0.00,,,0.00,weatherlink.com 1.10,2013-11-09 11:07:00,
2013-11-09 06:22:00,22.8,21.0,30.18,NE,34,0.0,1.0,91,0.00,,,0.00,weatherlink.com 1.10,2013-11-09 11:22:00,
2013-11-09 06:38:00,22.8,21.0,30.18,NE,37,0.0,1.0,92,0.00,,,0.00,weatherlink.com 1.10,2013-11-09 11:38:00,
2013-11-09 06:52:00,22.7,21.0,30.18,NE,37,0.0,1.0,91,0.00,,,0.00,weatherlink.com 1.10,2013-11-09 11:52:00,
2013-11-09 07:07:00,23.9,21.0,30.19,NNE,32,0.0,1.0,90,0.00,,,0.00,weatherlink.com 1.10,2013-11-09 12:07:00,
2013-11-09 07:22:00,24.8,22.0,30.19,ESE,114,0.0,1.0,89,0.00,,,0.00,weatherlink.com 1.10,2013-11-09 12:22:00,
2013-11-09 07:37:00,26.8,24.0,30.19,ESE,114,0.0,0.0,88,0.00,,,0.00,weatherlink.com 1.10,2013-11-09 12:37:00,
2013-11-09 07:52:00,28.4,25.0,30.19,ESE,114,0.0,1.0,85,0.00,,,0.00,weatherlink.com 1.10,2013-11-09 12:52:00,
2013-11-09 08:07:00,29.2,25.0,30.20,SE,126,0.0,1.0,83,0.00,,,0.00,weatherlink.com 1.10,2013-11-09 13:07:00,
2013-11-09 08:22:00,31.3,26.0,30.20,SE,130,0.0,1.0,80,0.00,,,0.00,weatherlink.com 1.10,2013-11-09 13:22:00,
2013-11-09 08:37:00,33.5,27.0,30.19,SE,141,0.0,2.0,78,0.00,,,0.00,weatherlink.com 1.10,2013-11-09 13:37:00,
2013-11-09 08:52:00,35.2,28.0,30.19,ESE,110,2.0,2.0,75,0.00,,,0.00,weatherlink.com 1.10,2013-11-09 13:52:00,
2013-11-09 09:07:00,36.9,27.0,30.19,SE,125,2.0,4.0,68,0.00,,,0.00,weatherlink.com 1.10,2013-11-09 14:07:00,
2013-11-09 09:22:00,38.1,26.0,30.18,SSE,153,3.0,5.0,63,0.00,,,0.00,weatherlink.com 1.10,2013-11-09 14:22:00,
2013-11-09 09:37:00,39.0,24.0,30.18,ESE,121,1.0,5.0,55,0.00,,,0.00,weatherlink.com 1.10,2013-11-09 14:37:00,
2013-11-09 09:52:00,39.7,25.0,30.18,SE,146,3.0,6.0,56,0.00,,,0.00,weatherlink.com 1.10,2013-11-09 14:52:00,
2013-11-09 10:07:00,39.6,26.0,30.18,ENE,78,1.0,6.0,58,0.00,,,0.00,weatherlink.com 1.10,2013-11-09 15:07:00,
2013-11-09 10:23:00,40.3,25.0,30.18,SSE,148,4.0,6.0,55,0.00,,,0.00,weatherlink.com 1.10,2013-11-09 15:23:00,
2013-11-09 10:38:00,40.2,25.0,30.16,SE,126,5.0,6.0,54,0.00,,,0.00,weatherlink.com 1.10,2013-11-09 15:38:00,
2013-11-09 10:53:00,41.0,24.0,30.16,WSW,241,2.0,8.0,52,0.00,,,0.00,weatherlink.com 1.10,2013-11-09 15:53:00,
2013-11-09 11:08:00,41.3,25.0,30.16,NNE,32,0.0,5.0,53,0.00,,,0.00,weatherlink.com 1.10,2013-11-09 16:08:00,
2013-11-09 11:23:00,41.4,24.0,30.15,ESE,114,2.0,5.0,51,0.00,,,0.00,weatherlink.com 1.10,2013-11-09 16:23:00,
2013-11-09 11:38:00,42.3,25.0,30.15,West,276,4.0,5.0,50,0.00,,,0.00,weatherlink.com 1.10,2013-11-09 16:38:00,
2013-11-09 11:53:00,41.7,25.0,30.14,WNW,292,4.0,8.0,51,0.00,,,0.00,weatherlink.com 1.10,2013-11-09 16:53:00,
2013-11-09 12:08:00,42.0,25.0,30.13,WSW,252,4.0,9.0,52,0.00,,,0.00,weatherlink.com 1.10,2013-11-09 17:08:00,
2013-11-09 12:23:00,41.8,25.0,30.12,WNW,300,3.0,7.0,52,0.00,,,0.00,weatherlink.com 1.10,2013-11-09 17:23:00,
2013-11-09 12:38:00,41.6,25.0,30.12,SW,218,4.0,11.0,52,0.00,,,0.00,weatherlink.com 1.10,2013-11-09 17:38:00,
2013-11-09 12:53:00,41.2,26.0,30.11,SW,232,2.0,10.0,55,0.00,,,0.00,weatherlink.com 1.10,2013-11-09 17:53:00,
2013-11-09 13:08:00,41.0,26.0,30.11,WSW,250,1.0,7.0,56,0.00,,,0.00,weatherlink.com 1.10,2013-11-09 18:08:00,
2013-11-09 13:23:00,41.2,26.0,30.10,South,186,5.0,6.0,55,0.00,,,0.00,weatherlink.com 1.10,2013-11-09 18:23:00,
2013-11-09 13:38:00,42.3,26.0,30.09,WSW,249,2.0,12.0,52,0.00,,,0.00,weatherlink.com 1.10,2013-11-09 18:38:00,
2013-11-09 13:53:00,43.2,26.0,30.09,SW,215,1.0,8.0,52,0.00,,,0.00,weatherlink.com 1.10,2013-11-09 18:53:00,
2013-11-09 14:08:00,42.7,26.0,30.08,WSW,249,6.0,7.0,51,0.00,,,0.00,weatherlink.com 1.10,2013-11-09 19:08:00,
2013-11-09 14:23:00,42.5,25.0,30.07,SW,219,4.0,6.0,51,0.00,,,0.00,weatherlink.com 1.10,2013-11-09 19:23:00,
2013-11-09 14:38:00,43.1,26.0,30.06,SW,233,0.0,5.0,51,0.00,,,0.00,weatherlink.com 1.10,2013-11-09 19:38:00,
2013-11-09 14:53:00,43.3,26.0,30.06,WSW,246,1.0,8.0,50,0.00,,,0.00,weatherlink.com 1.10,2013-11-09 19:53:00,
2013-11-09 15:08:00,43.7,26.0,30.05,WSW,257,1.0,5.0,51,0.00,,,0.00,weatherlink.com 1.10,2013-11-09 20:08:00,
2013-11-09 15:23:00,42.9,26.0,30.05,SW,230,3.0,7.0,52,0.00,,,0.00,weatherlink.com 1.10,2013-11-09 20:23:00,
2013-11-09 15:38:00,41.5,27.0,30.06,SSE,163,2.0,6.0,56,0.00,,,0.00,weatherlink.com 1.10,2013-11-09 20:38:00,
2013-11-09 15:53:00,40.4,27.0,30.06,SE,143,2.0,6.0,60,0.00,,,0.00,weatherlink.com 1.10,2013-11-09 20:53:00,
2013-11-09 16:08:00,39.8,27.0,30.06,West,271,4.0,6.0,61,0.00,,,0.00,weatherlink.com 1.10,2013-11-09 21:08:00,
2013-11-09 16:23:00,39.9,27.0,30.06,SSW,202,4.0,5.0,61,0.00,,,0.00,weatherlink.com 1.10,2013-11-09 21:23:00,
2013-11-09 16:38:00,39.9,28.0,30.05,SSE,155,1.0,4.0,62,0.00,,,0.00,weatherlink.com 1.10,2013-11-09 21:38:00,
2013-11-09 16:53:00,39.6,28.0,30.05,SE,140,1.0,4.0,63,0.00,,,0.00,weatherlink.com 1.10,2013-11-09 21:53:00,
2013-11-09 17:08:00,39.6,29.0,30.05,SSE,163,1.0,6.0,65,0.00,,,0.00,weatherlink.com 1.10,2013-11-09 22:08:00,
2013-11-09 17:23:00,39.5,29.0,30.05,SSE,153,0.0,7.0,66,0.00,,,0.00,weatherlink.com 1.10,2013-11-09 22:23:00,
2013-11-09 17:38:00,39.4,29.0,30.04,SSE,155,0.0,7.0,67,0.00,,,0.00,weatherlink.com 1.10,2013-11-09 22:38:00,
2013-11-09 17:53:00,39.4,30.0,30.04,SE,136,3.0,7.0,69,0.00,,,0.00,weatherlink.com 1.10,2013-11-09 22:53:00,
2013-11-09 18:08:00,39.5,30.0,30.04,WSW,244,0.0,5.0,70,0.00,,,0.00,weatherlink.com 1.10,2013-11-09 23:08:00,
2013-11-09 18:23:00,39.3,31.0,30.04,South,174,0.0,3.0,71,0.00,,,0.00,weatherlink.com 1.10,2013-11-09 23:23:00,
2013-11-09 18:38:00,39.4,31.0,30.03,SSE,147,3.0,6.0,71,0.00,,,0.00,weatherlink.com 1.10,2013-11-09 23:38:00,
2013-11-09 18:53:00,39.4,30.0,30.03,SSW,200,2.0,7.0,70,0.00,,,0.00,weatherlink.com 1.10,2013-11-09 23:53:00,
2013-11-09 19:08:00,39.2,31.0,30.03,SSE,160,0.0,5.0,71,0.00,,,0.00,weatherlink.com 1.10,2013-11-10 00:08:00,
2013-11-09 19:23:00,38.9,31.0,30.02,SE,129,1.0,4.0,72,0.00,,,0.00,weatherlink.com 1.10,2013-11-10 00:23:00,
2013-11-09 19:38:00,38.8,30.0,30.02,SE,142,0.0,2.0,72,0.00,,,0.00,weatherlink.com 1.10,2013-11-10 00:38:00,
2013-11-09 19:54:00,39.1,30.0,30.02,WNW,302,1.0,3.0,71,0.00,,,0.00,weatherlink.com 1.10,2013-11-10 00:54:00,
2013-11-09 20:09:00,39.5,30.0,30.02,SSW,200,0.0,3.0,70,0.00,,,0.00,weatherlink.com 1.10,2013-11-10 01:09:00,
2013-11-09 20:24:00,39.1,31.0,30.02,ENE,75,0.0,1.0,73,0.00,,,0.00,weatherlink.com 1.10,2013-11-10 01:24:00,
2013-11-09 20:39:00,38.9,31.0,30.01,SE,141,2.0,3.0,73,0.00,,,0.00,weatherlink.com 1.10,2013-11-10 01:39:00,
2013-11-09 20:54:00,38.9,31.0,30.01,SSE,151,2.0,5.0,73,0.00,,,0.00,weatherlink.com 1.10,2013-11-10 01:54:00,
2013-11-09 21:09:00,38.8,31.0,30.00,SSE,152,2.0,4.0,73,0.00,,,0.00,weatherlink.com 1.10,2013-11-10 02:09:00,
2013-11-09 21:24:00,38.8,31.0,29.99,SE,146,2.0,7.0,73,0.00,,,0.00,weatherlink.com 1.10,2013-11-10 02:24:00,
2013-11-09 21:39:00,39.4,31.0,29.99,SSE,155,2.0,7.0,72,0.00,,,0.00,weatherlink.com 1.10,2013-11-10 02:39:00,
2013-11-09 21:54:00,39.0,31.0,29.98,SSW,197,2.0,6.0,74,0.00,,,0.00,weatherlink.com 1.10,2013-11-10 02:54:00,
2013-11-09 22:09:00,38.8,32.0,29.97,SSE,168,2.0,5.0,77,0.00,,,0.00,weatherlink.com 1.10,2013-11-10 03:09:00,
2013-11-09 22:24:00,39.0,32.0,29.96,SW,226,5.0,7.0,77,0.00,,,0.00,weatherlink.com 1.10,2013-11-10 03:24:00,
2013-11-09 22:39:00,38.7,32.0,29.95,SW,233,0.0,7.0,78,0.00,,,0.00,weatherlink.com 1.10,2013-11-10 03:39:00,
2013-11-09 22:54:00,38.6,32.0,29.94,SSE,166,4.0,8.0,78,0.00,,,0.00,weatherlink.com 1.10,2013-11-10 03:54:00,
2013-11-09 23:09:00,38.6,33.0,29.93,SW,214,1.0,10.0,79,0.00,,,0.00,weatherlink.com 1.10,2013-11-10 04:09:00,
2013-11-09 23:24:00,38.1,33.0,29.93,SSW,205,2.0,9.0,82,0.01,,,0.01,weatherlink.com 1.10,2013-11-10 04:24:00,
2013-11-09 23:39:00,37.5,33.0,29.93,SE,140,4.0,4.0,85,0.01,,,0.01,weatherlink.com 1.10,2013-11-10 04:39:00,
2013-11-09 23:54:00,37.4,33.0,29.92,SSE,153,1.0,5.0,85,0.01,,,0.01,weatherlink.com 1.10,2013-11-10 04:54:00,